Temp
-5 -5 -5 -6 -6 -5 -5 -5 -5 -5 -5 -5 -5 -5 -5 -5 -5 -6 -7 -7 -6 -6 -6 -6 -5 -4 -4 -4 -4 -5 -5 -4 -4 -4 -4 -4 -5 -5 -5 -5 -5 -5 -4 -5 -6
-5 -5 -6 -6 -6 -6 -6 -6 -5 -5 -6 -6 -6 -5 -6 -6 -6 -5 -7 -7 -7 -6 -6 -6 -5 -5 -5 -4 -5 -5 -5 -4 -4 -4 -4 -4 -5 -5 -5 -6 -7 -5 -5 -5 -5
-5 -6 -7 -7 -7 -7 -7 -7 -6 -6 -6 -6 -6 -6 -6 -6 -6 -6 -7 -7 -7 -6 -6 -5 -5 -5 -5 -5 -5 -5 -5 -4 -4 -4 -4 -5 -5 -5 -6 -6 -6 -5 -5 -5 -5
-6 -7 -7 -7 -7 -7 -7 -8 -7 -7 -6 -6 -6 -6 -6 -7 -6 -6 -7 -7 -7 -6 -6 -5 -5 -6 -6 -5 -5 -5 -5 -4 -4 -4 -4 -4 -5 -5 -5 -5 -6 -6 -5 -5 -6
-6 -7 -7 -7 -7 -7 -7 -7 -8 -8 -7 -6 -6 -6 -7 -7 -6 -7 -7 -7 -7 -7 -6 -6 -6 -6 -6 -6 -5 -5 -5 -5 -5 -5 -5 -5 -5 -5 -5 -5 -6 -6 -5 -5 -6
-6 -6 -7 -7 -7 -7 -7 -7 -7 -8 -8 -8 -7 -7 -7 -7 -7 -7 -7 -7 -7 -7 -6 -6 -6 -6 -6 -6 -6 -6 -4 -5 -5 -5 -5 -5 -6 -6 -5 -5 -5 -5 -5 -5 -5
-6 -7 -7 -7 -7 -7 -7 -7 -7 -8 -8 -8 -8 -7 -7 -7 -7 -7 -7 -7 -7 -7 -7 -7 -6 -6 -6 -6 -6 -6 -5 -5 -5 -4 -5 -5 -5 -6 -6 -5 -5 -5 -5 -5 -6
-7 -7 -7 -7 -7 -8 -8 -7 -7 -8 -8 -8 -8 -8 -8 -7 -7 -7 -7 -7 -8 -8 -8 -7 -6 -5 -6 -6 -6 -5 -6 -5 -5 -5 -5 -6 -6 -5 -6 -5 -6 -5 -5 -5 -5
-7 -8 -8 -8 -8 -8 -8 -8 -8 -8 -9 -8 -8 -8 -8 -7 -8 -8 -7 -8 -8 -8 -8 -7 -6 -5 -5 -6 -6 -6 -6 -5 -5 -5 -6 -6 -6 -6 -6 -6 -5 -5 -5 -5 -6
-8 -8 -9 -9 -8 -8 -8 -9 -8 -8 -8 -9 -9 -8 -8 -8 -8 -8 -8 -8 -8 -8 -8 -8 -7 -6 -6 -6 -7 -7 -7 -5 -6 -6 -6 -6 -6 -5 -6 -6 -5 -5 -5 -5 -6
-9 -9 -9 -9 -9 -9 -8 -9 -8 -8 -9 -9 -9 -9 -8 -8 -8 -7 -8 -8 -8 -7 -8 -8 -7 -7 -7 -8 -7 -8 -7 -7 -5 -6 -6 -5 -7 -5 -6 -6 -6 -6 -5 -5 -6
-10 -10 -10 -10 -10 -9 -8 -8 -9 -9 -9 -9 -9 -9 -9 -8 -9 -8 -7 -7 -7 -8 -8 -8 -8 -8 -8 -8 -8 -8 -8 -7 -7 -7 -6 -7 -6 -6 -6 -6 -6 -5 -5 -5 -5
-11 -11 -10 -10 -10 -10 -10 -9 -9 -10 -10 -10 -10 -9 -9 -9 -9 -9 -9 -8 -8 -8 -8 -8 -9 -9 -8 -8 -9 -8 -9 -7 -7 -7 -6 -6 -6 -7 -7 -7 -6 -6 -6 -5 -5
-11 -11 -11 -11 -12 -13 -13 -13 -12 -11 -11 -11 -11 -10 -10 -10 -10 -9 -10 -9 -8 -8 -8 -9 -9 -9 -8 -8 -9 -9 -9 -9 -8 -7 -7 -7 -7 -7 -7 -6 -6 -6 -6 -6 -5
-12 -12 -12 -12 -13 -13 -14 -14 -15 -14 -14 -13 -12 -12 -11 -11 -11 -10 -10 -10 -9 -9 -8 -9 -9 -9 -8 -8 -8 -9 -10 -9 -9 -9 -8 -7 -7 -7 -7 -6 -6 -7 -7 -6 -6
-12 -12 -13 -13 -14 -14 -14 -14 -15 -16 -16 -16 -15 -14 -13 -12 -11 -11 -10 -10 -11 -10 -9 -9 -9 -8 -9 -9 -8 -10 -10 -10 -10 -9 -9 -8 -7 -7 -7 -8 -7 -7 -7 -7 -7
-12 -13 -14 -14 -14 -14 -14 -15 -15 -16 -16 -16 -16 -17 -15 -14 -12 -12 -11 -11 -11 -10 -10 -9 -9 -9 -9 -9 -9 -9 -10 -10 -10 -9 -9 -8 -8 -7 -8 -8 -8 -8 -7 -6 -7
-13 -13 -14 -14 -14 -14 -14 -15 -15 -16 -16 -16 -16 -16 -15 -14 -14 -13 -12 -12 -11 -11 -11 -10 -9 -9 -9 -9 -9 -9 -10 -10 -10 -10 -8 -9 -7 -7 -7 -7 -6 -6 -7 -7 -6
-13 -13 -14 -14 -15 -15 -15 -15 -15 -16 -16 -15 -16 -16 -14 -14 -15 -15 -14 -13 -13 -11 -11 -11 -10 -10 -10 -10 -9 -9 -10 -10 -10 -10 -9 -9 -8 -8 -8 -7 -6 -7 -7 -7 -8
-13 -13 -14 -15 -15 -15 -16 -16 -16 -16 -17 -16 -16 -16 -16 -15 -15 -16 -15 -14 -12 -12 -12 -11 -11 -11 -10 -10 -10 -10 -10 -10 -11 -11 -10 -9 -8 -8 -8 -7 -6 -7 -7 -8 -7
-13 -13 -14 -15 -15 -16 -16 -16 -16 -15 -16 -16 -16 -16 -16 -15 -16 -16 -16 -15 -13 -13 -13 -12 -12 -12 -11 -11 -11 -10 -10 -11 -11 -10 -10 -10 -8 -8 -8 -7 -8 -8 -8 -8 -7
-14 -14 -14 -15 -15 -15 -16 -16 -16 -15 -16 -16 -15 -16 -16 -16 -16 -16 -15 -15 -15 -14 -14 -13 -12 -13 -13 -12 -12 -11 -11 -11 -11 -11 -10 -10 -9 -9 -9 -8 -8 -8 -8 -8 -7
-14 -14 -14 -14 -14 -14 -15 -16 -16 -15 -15 -16 -16 -16 -16 -16 -16 -16 -15 -15 -15 -15 -15 -14 -13 -13 -13 -13 -13 -12 -11 -11 -11 -11 -10 -10 -9 -9 -9 -9 -8 -8 -8 -8 -7
-14 -14 -14 -14 -14 -15 -15 -16 -16 -16 -16 -16 -16 -15 -16 -16 -16 -15 -15 -15 -15 -15 -15 -14 -14 -14 -14 -13 -13 -12 -11 -11 -10 -11 -10 -10 -10 -9 -8 -8 -9 -8 -8 -8 -8
-14 -14 -14 -15 -15 -15 -16 -16 -16 -16 -16 -16 -16 -16 -16 -16 -16 -15 -15 -15 -15 -15 -15 -15 -14 -14 -13 -13 -13 -12 -12 -11 -11 -10 -10 -10 -10 -10 -9 -9 -9 -8 -9 -9 -9
-14 -14 -14 -15 -15 -16 -16 -15 -16 -16 -16 -16 -16 -16 -16 -16 -16 -15 -15 -16 -15 -15 -15 -15 -14 -14 -14 -13 -13 -13 -12 -11 -11 -11 -10 -10 -11 -11 -10 -10 -9 -9 -9 -9 -10
-15 -15 -15 -15 -15 -15 -15 -15 -16 -16 -16 -15 -15 -16 -15 -15 -15 -15 -16 -15 -15 -15 -15 -14 -15 -14 -14 -13 -14 -13 -12 -12 -12 -11 -11 -11 -11 -11 -11 -10 -10 -10 -10 -10 -9
Height
5848 5847 5846 5846 5847 5847 5848 5849 5850 5851 5852 5853 5855 5857 5858 5859 5860 5860 5862 5869 5872 5875 5878 5880 5884 5887 5888 5891 5892 5893 5895 5894 5894 5894 5894 5895 5897 5900 5903 5903 5903 5906 5908 5910 5912
5843 5842 5841 5840 5839 5840 5841 5843 5844 5846 5848 5849 5851 5853 5855 5856 5857 5858 5863 5866 5870 5873 5876 5879 5883 5887 5888 5890 5892 5893 5894 5895 5896 5895 5897 5898 5899 5901 5906 5906 5907 5907 5910 5912 5913
5840 5839 5837 5836 5835 5834 5834 5835 5837 5840 5842 5844 5847 5848 5851 5853 5854 5857 5859 5864 5867 5870 5875 5879 5882 5886 5888 5889 5891 5892 5894 5895 5896 5897 5897 5899 5900 5901 5905 5908 5910 5909 5909 5913 5915
5837 5835 5834 5833 5831 5830 5830 5830 5830 5832 5835 5838 5841 5844 5846 5849 5852 5854 5856 5861 5864 5869 5874 5878 5882 5886 5888 5890 5890 5892 5893 5895 5897 5897 5896 5899 5902 5903 5901 5910 5911 5912 5912 5914 5915
5833 5831 5829 5828 5827 5826 5825 5824 5825 5827 5827 5831 5835 5838 5842 5844 5847 5851 5853 5858 5861 5866 5871 5875 5879 5884 5886 5888 5890 5890 5892 5894 5897 5897 5897 5899 5901 5903 5905 5910 5912 5914 5915 5916 5917
5829 5826 5824 5823 5821 5820 5819 5819 5819 5821 5823 5824 5828 5832 5836 5839 5843 5847 5850 5854 5858 5862 5868 5872 5874 5879 5882 5885 5887 5889 5892 5894 5898 5899 5898 5900 5901 5903 5905 5910 5912 5915 5916 5917 5918
5824 5821 5819 5817 5816 5814 5813 5812 5813 5814 5816 5819 5821 5825 5830 5833 5837 5842 5845 5850 5854 5858 5862 5864 5868 5875 5880 5883 5887 5890 5894 5894 5897 5898 5899 5901 5903 5903 5904 5908 5911 5913 5916 5917 5917
5819 5816 5813 5811 5808 5807 5807 5806 5806 5807 5809 5812 5816 5818 5821 5828 5833 5835 5840 5845 5849 5853 5856 5858 5863 5871 5876 5881 5883 5889 5894 5894 5894 5895 5897 5899 5902 5902 5904 5907 5911 5913 5915 5916 5917
5813 5810 5806 5804 5802 5800 5799 5799 5799 5799 5802 5806 5809 5813 5814 5823 5825 5829 5835 5840 5843 5846 5850 5856 5863 5866 5873 5878 5881 5888 5891 5891 5891 5888 5892 5898 5900 5902 5904 5905 5910 5913 5915 5916 5919
5806 5803 5800 5797 5794 5792 5791 5791 5791 5792 5793 5797 5800 5807 5809 5815 5817 5821 5828 5833 5838 5842 5846 5852 5857 5862 5868 5876 5882 5886 5887 5889 5889 5891 5894 5897 5900 5902 5902 5907 5908 5912 5915 5917 5917
5799 5796 5792 5789 5785 5783 5782 5783 5784 5785 5786 5790 5793 5796 5802 5809 5812 5815 5821 5826 5832 5837 5842 5848 5853 5859 5868 5875 5877 5881 5883 5886 5888 5889 5890 5895 5898 5900 5901 5904 5907 5909 5911 5915 5917
5794 5790 5786 5782 5778 5775 5773 5773 5775 5779 5780 5781 5785 5790 5794 5803 5808 5808 5816 5822 5827 5834 5838 5843 5850 5858 5861 5867 5873 5877 5878 5881 5885 5887 5888 5888 5894 5897 5900 5904 5906 5907 5909 5913 5914
5788 5784 5780 5775 5771 5768 5765 5766 5766 5767 5770 5773 5776 5781 5788 5794 5800 5804 5811 5816 5822 5828 5832 5840 5849 5851 5856 5861 5867 5872 5875 5877 5882 5885 5887 5888 5892 5895 5898 5902 5903 5906 5908 5910 5913
5783 5780 5776 5771 5767 5763 5761 5760 5760 5759 5763 5767 5768 5771 5780 5785 5791 5798 5803 5810 5815 5821 5827 5836 5841 5845 5850 5856 5861 5868 5873 5872 5877 5881 5885 5884 5890 5893 5896 5899 5901 5902 5905 5908 5912
5777 5774 5771 5767 5764 5761 5758 5756 5756 5756 5758 5760 5762 5763 5769 5777 5784 5790 5796 5802 5808 5815 5822 5832 5834 5840 5846 5854 5857 5867 5867 5869 5874 5877 5880 5882 5887 5890 5894 5897 5900 5902 5905 5908 5911
5775 5771 5767 5766 5762 5760 5756 5752 5753 5755 5754 5755 5754 5757 5763 5769 5775 5781 5789 5796 5802 5807 5815 5823 5827 5834 5843 5849 5855 5861 5862 5864 5868 5872 5872 5880 5885 5889 5891 5894 5898 5901 5903 5905 5908
5772 5769 5766 5763 5761 5758 5754 5752 5754 5754 5755 5754 5754 5753 5754 5761 5768 5775 5781 5788 5796 5802 5811 5817 5822 5830 5837 5841 5847 5851 5856 5859 5863 5864 5868 5877 5880 5885 5886 5890 5892 5895 5900 5902 5905
5770 5767 5764 5762 5760 5757 5755 5754 5754 5755 5754 5754 5755 5756 5757 5757 5762 5768 5776 5781 5787 5796 5805 5812 5818 5825 5833 5838 5844 5847 5849 5854 5857 5859 5868 5873 5874 5881 5884 5888 5891 5895 5897 5898 5899
5768 5765 5763 5761 5759 5756 5755 5754 5754 5752 5752 5753 5754 5754 5755 5758 5762 5767 5772 5778 5783 5792 5802 5809 5814 5820 5826 5833 5838 5842 5845 5853 5854 5858 5864 5867 5870 5879 5881 5885 5889 5893 5895 5896 5899
5766 5763 5761 5760 5758 5757 5755 5754 5752 5750 5748 5752 5753 5754 5754 5757 5761 5766 5770 5774 5780 5788 5796 5805 5810 5815 5820 5826 5832 5838 5843 5846 5849 5853 5856 5861 5867 5872 5876 5883 5886 5888 5891 5893 5896
5764 5762 5758 5757 5756 5756 5755 5755 5753 5751 5751 5754 5754 5754 5755 5757 5761 5764 5768 5772 5777 5783 5789 5797 5806 5811 5816 5820 5827 5833 5835 5841 5846 5850 5851 5858 5865 5869 5873 5878 5881 5885 5888 5890 5892
5761 5761 5759 5757 5756 5754 5755 5752 5751 5750 5751 5751 5753 5755 5755 5756 5759 5763 5767 5771 5774 5780 5785 5790 5799 5806 5811 5814 5822 5827 5830 5835 5839 5844 5848 5853 5860 5864 5869 5873 5878 5880 5883 5885 5888
5758 5759 5759 5757 5755 5753 5753 5750 5747 5747 5747 5748 5748 5751 5755 5757 5760 5762 5765 5769 5773 5778 5782 5787 5796 5802 5807 5811 5816 5819 5823 5829 5834 5839 5842 5848 5855 5858 5864 5869 5873 5876 5878 5880 5883
5758 5758 5756 5756 5754 5754 5751 5748 5746 5745 5744 5745 5745 5748 5752 5754 5757 5761 5764 5766 5769 5773 5778 5783 5791 5797 5802 5804 5807 5813 5818 5823 5828 5833 5837 5842 5849 5852 5857 5864 5868 5872 5874 5876 5878
5757 5757 5756 5756 5754 5753 5751 5749 5745 5744 5743 5744 5745 5746 5748 5751 5755 5757 5758 5764 5768 5772 5776 5782 5787 5792 5792 5798 5804 5809 5813 5817 5821 5826 5831 5837 5841 5845 5851 5857 5861 5867 5870 5871 5873
5756 5755 5756 5756 5755 5753 5753 5749 5746 5744 5743 5744 5744 5744 5745 5747 5750 5754 5756 5762 5765 5770 5773 5776 5781 5787 5790 5791 5795 5801 5807 5813 5818 5819 5823 5829 5833 5837 5844 5852 5856 5860 5863 5866 5867
5754 5754 5755 5755 5754 5753 5752 5750 5747 5745 5744 5742 5743 5743 5743 5746 5747 5751 5754 5759 5762 5766 5770 5773 5777 5782 5786 5787 5785 5794 5800 5804 5810 5813 5817 5822 5829 5832 5838 5845 5849 5852 5856 5859 5861
Wind_Speed
25 25 27 26 26 27 27 26 25 23 22 21 22 19 19 18 16 19 31 30 28 24 20 19 17 16 18 16 11 5 2 2 3 8 9 14 18 15 12 13 8 8 9 13 13
22 21 21 23 25 27 27 28 28 27 24 23 22 22 20 20 20 20 31 32 29 25 23 20 19 19 19 17 12 9 5 3 4 8 14 12 18 16 14 13 8 9 9 11 14
20 19 17 16 19 23 25 26 27 28 27 26 24 23 23 22 23 21 35 34 31 28 25 22 20 21 22 20 16 11 11 5 3 7 12 17 10 14 18 15 8 7 9 10 11
18 18 17 15 14 16 22 25 27 27 28 27 26 25 24 24 25 24 36 36 33 29 25 22 19 18 19 18 15 14 14 8 5 10 10 10 13 11 11 14 10 7 11 11 11
19 19 18 17 17 17 18 21 25 28 27 28 27 26 26 27 27 27 30 38 35 31 27 24 22 20 20 19 15 15 18 11 9 15 11 13 11 15 8 11 7 6 12 11 10
20 20 20 19 18 20 20 20 22 25 30 28 27 26 28 28 29 28 30 37 38 34 31 28 28 25 25 23 23 19 16 14 11 12 13 8 9 4 8 9 10 7 9 13 14
23 23 24 24 24 21 22 24 25 26 27 31 29 27 27 31 29 30 31 32 38 38 34 35 33 31 28 26 26 22 17 11 19 14 10 10 5 4 9 13 11 8 7 12 11
25 24 24 25 26 25 22 24 23 29 28 31 32 30 30 28 28 32 33 33 35 37 40 42 39 34 32 27 27 28 22 25 18 22 15 12 12 10 9 15 15 10 7 9 11
27 25 24 24 25 26 26 23 24 25 30 29 32 33 35 28 31 34 35 35 37 39 40 41 40 39 34 30 27 22 22 21 19 19 19 11 7 15 11 8 11 10 8 8 13
28 27 25 23 24 24 25 23 24 25 29 31 31 32 37 34 36 38 35 38 37 39 41 39 39 41 38 32 24 21 22 18 23 16 15 13 6 4 13 5 10 10 11 10 11
28 26 25 24 25 24 25 27 25 26 26 30 32 33 36 36 38 38 39 38 41 40 40 39 39 36 31 28 29 23 28 28 26 17 21 20 12 6 8 15 8 7 7 10 16
28 26 24 25 23 21 23 27 27 25 27 27 32 35 34 35 39 43 40 41 39 39 38 40 37 32 32 30 29 24 25 30 31 23 21 8 17 12 15 14 15 7 7 8 11
26 24 25 24 25 17 16 19 22 24 27 30 31 35 36 36 36 42 41 42 40 38 40 38 33 36 36 33 31 30 28 31 28 29 25 19 12 15 14 15 20 14 12 7 8
23 24 26 25 17 14 11 6 14 20 21 28 32 33 35 36 37 40 43 44 44 41 39 36 36 38 41 38 34 34 28 32 30 31 27 24 19 17 18 16 16 19 14 13 11
18 21 23 17 10 11 10 8 7 5 13 20 30 33 34 33 37 39 43 45 45 43 41 34 38 39 38 37 38 31 32 33 32 32 32 30 23 18 16 15 19 17 13 12 14
17 18 16 11 9 12 12 7 6 4 13 15 23 21 28 29 36 40 39 42 45 46 42 38 40 41 37 34 37 35 37 38 36 35 38 32 24 18 14 20 18 16 13 11 14
16 17 10 10 10 11 10 9 5 3 10 19 20 16 29 29 32 37 39 42 45 47 43 43 41 39 39 40 39 43 41 42 40 41 38 30 26 22 21 19 16 13 14 11 11
14 15 10 10 9 10 6 4 6 9 13 19 18 15 19 28 31 30 35 42 44 47 45 44 43 40 39 41 40 43 45 45 45 42 37 30 33 27 25 24 19 14 9 3 12
13 13 9 9 10 8 3 4 8 7 15 20 19 16 19 23 25 25 28 38 40 43 44 43 42 40 39 40 43 43 47 45 42 41 37 36 32 29 29 25 20 16 10 5 10
11 13 11 8 6 4 1 6 8 9 16 22 19 18 21 24 24 26 26 35 41 41 39 42 40 42 41 41 42 45 47 48 47 39 43 39 33 28 31 24 20 17 19 12 12
10 9 12 9 5 3 5 7 4 7 17 17 16 22 26 27 22 27 28 27 37 36 39 43 40 41 40 41 41 46 48 50 47 49 41 39 33 28 28 25 22 22 19 18 19
10 9 8 7 4 4 7 10 6 7 8 21 18 22 23 17 24 23 25 24 27 35 33 39 38 39 41 41 40 39 49 52 50 48 46 42 41 33 29 30 24 19 21 25 22
8 7 6 6 5 9 9 8 7 6 6 8 22 20 17 26 26 26 23 23 24 30 34 36 34 36 38 38 33 38 46 49 55 53 53 48 44 42 40 30 28 26 25 29 29
6 3 6 5 6 10 13 14 7 4 7 3 11 22 19 19 20 25 31 27 26 32 35 34 32 33 39 38 40 39 43 48 54 57 55 51 49 48 45 40 29 24 28 31 29
6 5 5 6 9 11 12 12 11 3 5 3 2 8 14 16 16 18 30 27 22 26 33 30 31 34 35 43 40 41 42 47 51 56 57 53 52 50 49 41 39 34 32 35 33
7 7 5 4 7 8 9 11 13 10 4 3 3 6 9 7 13 19 22 23 23 24 27 23 25 34 39 36 45 43 42 46 48 54 56 55 54 53 48 40 39 37 36 29 23
9 8 5 5 7 8 9 10 10 13 8 1 5 6 7 11 13 17 20 23 21 23 24 18 21 29 35 43 43 46 47 45 48 52 55 55 55 54 50 44 44 43 38 34 35
Wind_Direction
282 280 275 271 267 264 264 265 262 255 250 241 239 236 229 227 218 208 195 196 198 201 198 200 188 184 187 196 192 93 243 49 52 108 131 118 141 139 133 112 108 122 136 138 149
291 283 278 271 267 262 261 259 259 260 253 248 238 235 230 225 217 209 194 196 200 201 198 199 189 178 187 202 190 170 211 111 64 158 134 152 144 147 132 116 120 129 140 140 143
290 293 295 285 273 260 252 249 249 252 255 249 243 233 230 224 220 205 198 197 203 203 204 200 197 185 192 203 207 208 228 167 124 151 137 147 165 157 160 130 123 144 143 133 138
299 298 297 289 283 276 268 255 242 237 246 250 244 238 228 222 219 208 201 198 205 205 204 204 198 194 203 207 216 212 220 197 159 185 130 146 153 156 144 126 120 131 146 147 147
301 293 296 286 281 273 268 266 258 243 232 238 241 235 232 222 218 212 206 201 204 205 202 206 203 197 197 202 207 208 211 178 172 170 135 118 132 173 201 145 139 144 153 145 156
310 298 291 290 282 274 263 259 260 253 245 227 231 232 229 226 218 213 210 204 204 205 203 208 209 198 201 196 193 192 174 188 166 179 151 120 128 170 175 165 162 153 157 149 159
312 299 293 289 288 279 268 261 256 254 243 241 223 223 224 226 219 214 211 207 208 206 205 207 212 204 204 203 204 203 188 202 191 173 153 144 139 236 183 167 167 164 136 141 162
309 304 297 289 283 281 268 261 255 249 245 237 234 218 218 223 219 217 211 207 208 209 211 210 211 211 208 204 211 215 219 221 201 210 179 164 168 184 185 167 173 165 149 125 149
311 304 298 290 281 278 274 260 255 250 241 237 234 230 217 208 209 217 213 210 207 208 211 216 215 215 211 206 211 219 216 211 206 183 170 181 199 176 187 179 154 163 156 134 132
314 308 304 294 285 278 273 263 250 246 238 230 229 229 225 206 209 213 212 212 210 210 211 213 215 217 215 206 209 218 215 210 204 196 186 185 211 184 168 159 156 163 124 154 150
313 308 305 299 293 284 272 264 250 244 237 233 225 222 228 216 209 216 211 210 212 211 212 213 215 217 219 207 206 217 232 232 222 200 193 201 208 213 161 168 158 179 176 140 172
314 311 311 307 299 285 273 262 254 244 239 229 227 226 218 222 213 215 212 215 213 212 214 212 213 213 216 207 206 208 224 225 224 227 227 217 200 181 168 204 216 201 243 159 144
315 313 314 313 308 294 277 263 258 241 233 222 221 221 220 214 215 216 214 214 212 210 213 214 206 208 212 208 205 207 216 223 221 212 221 218 201 208 206 209 210 236 236 214 176
315 317 323 325 324 327 343 330 256 258 236 225 216 215 216 218 210 216 213 212 211 210 211 208 207 211 210 206 205 204 211 222 223 219 212 223 213 219 218 222 225 215 217 223 219
312 323 330 332 351 344 340 346 4 262 231 225 220 212 210 210 210 208 214 213 209 210 210 201 209 210 214 207 206 197 207 218 225 230 229 231 225 224 223 219 218 212 212 224 230
317 330 335 333 346 345 340 8 350 306 202 198 205 203 206 204 207 206 208 212 212 209 205 199 208 208 207 206 207 198 207 212 223 230 232 228 225 219 171 192 198 199 215 221 213
319 330 332 323 331 343 2 39 17 340 205 199 185 182 192 187 198 207 204 207 212 211 205 203 206 207 205 205 204 200 205 209 216 224 227 221 220 213 194 194 194 198 197 221 213
318 327 331 334 347 343 347 45 334 280 241 213 187 194 202 185 185 192 202 201 206 210 207 203 208 206 205 208 207 204 206 208 215 222 227 220 224 198 199 214 215 217 180 236 229
307 321 322 334 349 360 261 312 321 288 191 206 191 182 187 186 182 183 193 201 202 205 209 205 209 206 208 205 208 205 208 209 217 225 225 221 231 210 218 220 214 197 198 195 192
303 322 330 330 334 354 114 323 323 334 217 195 183 181 171 174 176 167 183 196 202 203 205 206 209 210 209 207 209 207 208 209 216 220 228 227 226 216 220 218 207 203 208 212 203
296 318 328 332 344 294 276 268 275 283 199 198 183 177 173 173 172 172 178 193 204 203 203 203 207 211 214 213 207 208 208 208 215 222 228 229 230 230 225 214 210 210 213 203 204
289 307 338 322 316 338 289 287 288 240 206 211 211 191 197 203 187 186 179 192 200 201 205 205 201 209 208 216 211 209 212 210 214 220 227 232 230 228 227 223 213 211 220 212 213
292 313 329 290 314 343 341 327 290 227 239 235 206 201 215 209 208 202 189 188 196 205 208 215 203 204 206 213 211 208 212 215 216 220 226 231 231 232 231 230 233 234 225 221 232
287 335 322 324 16 2 360 355 343 219 226 266 226 211 222 223 231 217 209 206 203 204 210 213 210 204 206 212 215 208 212 215 218 221 226 232 238 239 237 234 236 231 226 227 227
261 257 285 351 360 354 358 356 4 336 234 233 257 245 241 234 222 244 221 204 209 217 214 217 215 206 208 213 221 221 215 216 218 222 225 229 236 237 240 240 241 229 226 239 234
243 250 286 350 338 335 319 345 17 1 323 236 195 199 213 209 208 222 211 197 217 222 221 230 221 215 221 216 218 220 227 225 225 225 225 227 229 236 239 237 239 237 245 249 253
238 257 293 317 318 321 333 339 6 10 16 328 195 211 232 206 210 218 217 212 222 230 229 235 233 230 223 233 242 214 217 222 225 228 231 230 231 237 241 238 238 240 244 248 250